Jackpot

Texas Poker Multi Jackpot System

Kini Telah hadir Jackpot SUPER ROYAL FLUSH

Kini Telah hadir Jackpot 2000 (khusus table VIP keatas).

Ikutilah global jackpot yang tersedia di system kami, dengan system jackpot terbaru dan pertama di indonesia, anda dapat membeli jackpot dengan harga 100 rupiah saja dan menangkan hadiahnya hingga puluhan juta rupiah.

Jackpot bukanlah suatu keharusan untuk dibeli, namun kami memberikan suatu fitur tambahan untuk member tercinta dari www.bapapoker.com.

Terdapat tiga pilihan harga jackpot yang bisa anda beli yaitu :100,500,1000 dan 2000(khusus table VIP Keatas) rupiah.

Hadiah dari Multi jackpot system www.bapapoker.com

  1. full house x 10 harga jackpot yang anda beli.
      (contoh:anda membeli 1000 maka:1000 X10 = 10.000)
  2. four of kind x 250 harga jackpot yang anda beli
      (contoh:anda membeli 1000 maka:1000 X250 = 250.000)
  3. Straight flush x 1200
      (contoh:anda membeli 1000 maka:1000 X1200 = 1.200.000)
  4. Royal flush x 10000 harga jackpot yang anda beli
      (contoh:anda membeli 1000 maka:1000 X10000 = 10.000.000)
  5. SUPER ROYAL FLUSH x 30000 harga jackpot yang anda beli
      (contoh:anda membeli 1000 maka:1000 X30000 = 30.000.000)

Kondisi kartu

  1. full house adalah kondisi kartu dimana kartu anda dan kartu tengah dengan total 7 kartu bisa mendapatkan nilai 5 kartu dengan kombinasi 1 tris(three of kind) dan 1 pair, contoh 3 kartu 10 dan 2 kartu 5
  2. Four of kind adalah kondisi kartu dimana kartu anda dan kartu tengah dengan total 7 kartu bisa mendapatkan nilai 5 kartu dengan kombinasi 4 kartu yang sama jumlah dan 1 kartu apapun juga contoh anda mendapatkan 4 buah kartu angka 3 dan 1 kartu apapun.
  3. Staright flush adalah kondisi kartu dimana kartu anda dan kartu tengah dengan total 7 kartu bisa mendapatkan nilai 5 kartu dengan kombinasi seri / staright dengan kembang yang sama contoh : urutan kartu dari angka 5, 6, 7, 8 , 9 10 dengan kembang yg sama misalnya as hati
  4. Royal flush adalah kondisi kartu dimana kartu anda dan kartu tengah dengan total 7 kartu bisa mendapatkan nilai 5 kartu dengan kombinasi seri / staright dengan kembang yang sama tetapi kartu tersebut haruslah dimulai dari 10. contoh 10, Queen, Jack, King dan aces dengan kembang yang sama
  5. Super Royal flush adalah kondisi kartu dimana Kedua kartu anda digabung dengan 3 kartu pertama meja haruslah royal flush. contoh kartu anda 10,Queen kembang sama dan 3 kartu pertama meja adalah Jack, King dan aces dengan kembang yang sama

Demikian adalah penjelasan dari Multi Jackpot www.bapapoker.com terima kasih dan selamat bermain salam hoki dari kami

Texas Poker Jackpot Winner

TOP SUPER ROYAL FLUSH
No.TanggalNamaPriceWin
121/09 14:11ROYALJOZZSuper Royal flush60,000,000
221/09 13:43BA_ATIYOSuper Royal flush6,000,000
321/09 12:23B8EKCBJIYMSuper Royal flush3,000,000
421/09 08:32TUPO25Super Royal flush3,000,000
521/09 07:21SLOME898Super Royal flush30,000,000
TOP ROYAL FLUSH
No.TanggalNamaPriceWin
122/09 01:00IJ4HELIS4Royal flush2,000,000
222/09 00:53TAWON127Royal flush2,000,000
322/09 00:52PENG55Royal flush2,000,000
422/09 00:44TADAH3Royal flush20,000,000
522/09 00:38AALLIINN88Royal flush1,000,000
TOP STRAIGHT FLUSH
No.TanggalNamaPriceWin
122/09 01:11DHY23Straight Flush240,000
222/09 01:08BUSINESS99Straight Flush2,400,000
322/09 01:08FINO303Straight Flush2,400,000
422/09 01:07PIKACHU417Straight Flush120,000
522/09 01:07LOBUR75Straight Flush240,000
LATEST JACKPOT
No.TanggalNamaPriceWin
122/09 01:13OCIT_77Full House2,000
222/09 01:13LINGGA89Full House2,000
322/09 01:13CD98F13EFull House1,000
422/09 01:13NURL77Full House10,000
522/09 01:13EKONTOLPLOFull House5,000
622/09 01:13MASTERJPFull House2,000
722/09 01:13AANTEONGFull House5,000
822/09 01:13KUPRAANTOFull House5,000
922/09 01:13CEGLESFull House5,000
1022/09 01:13D3F6ED40Full House2,000
1122/09 01:13CANDIQODARFull House5,000
1222/09 01:13XIDU7KBZXSFull House2,000
1322/09 01:13AQS99Full House1,000
1422/09 01:13HOKIBANGE1Full House5,000
1522/09 01:12HAAJAAR55Full House1,000
1622/09 01:12C04HAJARBOS951Four Of A Kind25,000
1722/09 01:12DWBTEKAM50Full House5,000
1822/09 01:12MOKU87Full House5,000
1922/09 01:12LBWUDQPSVJFull House2,000
2022/09 01:12DWBTOP2313Full House2,000
2122/09 01:12OREKEWACEFull House1,000
2222/09 01:12H4NTUU89Full House2,000
2322/09 01:12H11TLERFull House5,000
2422/09 01:12AEPSMFull House2,000
2522/09 01:12DLTFull House1,000
2622/09 01:12SE7EN77Full House1,000
2722/09 01:12JEMBOTMUFull House1,000
2822/09 01:12EBEL19Full House2,000
2922/09 01:12D4LLEK4Full House5,000
3022/09 01:12KAWASAKI98Full House5,000
3122/09 01:12HAPPY022Full House1,000
3222/09 01:12RI_ATLFull House2,000
3322/09 01:12BOOBOYFull House10,000
3422/09 01:12D3L1M4AFull House5,000
3522/09 01:12AMBOINA10Full House2,000
3622/09 01:12NOO9Full House10,000
3722/09 01:12NES99Full House5,000
3822/09 01:12SYFA2000Full House2,000
3922/09 01:12AKWO718JAKFull House2,000
4022/09 01:12FRENTA88Full House2,000
4122/09 01:12ZHIE94Full House5,000
4222/09 01:12TUTOASKSFull House2,000
4322/09 01:12S0T0YFour Of A Kind250,000
4422/09 01:12JANGAR02Full House5,000
4522/09 01:12IDWJS3QCGRFull House2,000
4622/09 01:12SARJI98Full House2,000
4722/09 01:12B2GCVXOW7LFull House2,000
4822/09 01:12SU_TORFull House20,000
4922/09 01:12KASIHAN69Four Of A Kind250,000
5022/09 01:12HOK17ERUSFull House5,000

Domino Multi Jackpot System

Ikutilah global jackpot yang tersedia di system kami, dengan system jackpot terbaru dan pertama di indonesia, anda dapat membeli jackpot dengan harga 100 rupiah saja dan menangkan hadiahnya hingga puluhan juta rupiah.

Jackpot bukanlah suatu keharusan untuk dibeli, namun kami memberikan suatu fitur tambahan untuk member tercinta dari www.bapapoker.com.

Terdapat tiga pilihan harga jackpot yang bisa anda beli yaitu :100,500 dan 1000 rupiah.

Hadiah dari Multi jackpot system www.bapapoker.com

  1. Murni Kecil x 50 harga jackpot yang anda beli.
      (contoh:anda membeli 1000 maka:1000 X 50 = 50.000)
  2. Murni Besar x 50 harga jackpot yang anda beli
      (contoh:anda membeli 1000 maka:1000 X 50 = 50.000)
  3. BALAK x 100 harga jackpot yang anda beli
      (contoh:anda membeli 1000 maka:1000 X 100 = 100.000)
  4. ENAM DEWA x 6666 harga jackpot yang anda beli
      (contoh:anda membeli 1000 maka:1000 X 6666 = 6.666.000)

Demikian adalah penjelasan dari Multi Jackpot www.bapapoker.com terima kasih dan selamat bermain salam hoki dari kami

Domino Jackpot Winner

TOP ENAM DEWA
No.TanggalNamaPriceWin
122/09 01:09WISMA92murni enam3,333,000
222/09 01:08ABAY888888murni enam3,333,000
322/09 00:44AMSEO99murni enam3,333,000
422/09 00:43DYCK22murni enam6,666,000
521/09 23:35TEMPE444murni enam666,600
TOP BALAK
No.TanggalNamaPriceWin
122/09 01:09FRANS48balak100,000
222/09 01:09ED473B6Dbalak100,000
322/09 01:06ALDOSANJAYbalak50,000
422/09 01:04GOKIL1998balak50,000
522/09 01:04PUNDEN995balak100,000
LATEST JACKPOT
No.TanggalNamaPriceWin
122/09 01:13UDUKMPALlucky9910,000
222/09 01:12BARBARQQmurni besar50,000
322/09 01:12ASAADmurni besar50,000
422/09 01:10JEFF1603murni kecil50,000
522/09 01:10MERCIZAAKmurni besar50,000
622/09 01:10GAJAH1THNmurni besar5,000
722/09 01:09WISMA92murni enam3,333,000
822/09 01:09FRANS48balak100,000
922/09 01:09ED473B6Dbalak100,000
1022/09 01:08MARYANTO70murni besar50,000
1122/09 01:08PIT99murni kecil50,000
1222/09 01:08ABAY888888murni enam3,333,000
1322/09 01:07DRAGON75murni besar5,000
1422/09 01:07ASHCOMmurni kecil25,000
1522/09 01:07AGENT88556murni kecil25,000
1622/09 01:07OPUNG77murni besar25,000
1722/09 01:07ACIL66murni besar50,000
1822/09 01:06J1D4TLOmurni besar50,000
1922/09 01:06ALDOSANJAYbalak50,000
2022/09 01:05ANDRISMAlucky9910,000
2122/09 01:04DARAHKU99lucky9950,000
2222/09 01:04IMELDA727murni kecil50,000
2322/09 01:04PREI99murni kecil25,000
2422/09 01:04GOKIL1998balak50,000
2522/09 01:04RICHARD76murni kecil5,000
2622/09 01:04PUNDEN995balak100,000
2722/09 01:03QQANDSURlucky992,500
2822/09 01:02GEGER057murni kecil50,000
2922/09 01:01ITF53TZHWVmurni kecil50,000
3022/09 01:01TMN07murni besar50,000
3122/09 01:00PEMBELImurni kecil50,000
3222/09 01:00JAY48055murni besar50,000
3322/09 01:00CMD75911balak100,000
3422/09 00:59ANDROYYYbalak10,000
3522/09 00:59ESPOY99balak100,000
3622/09 00:59STYLE930murni besar50,000
3722/09 00:59TAUFIQ112murni besar50,000
3822/09 00:59SEPTIAN009murni kecil5,000
3922/09 00:59DWTGEPENGSmurni besar5,000
4022/09 00:58HA24murni besar50,000
4122/09 00:58PETIRR88balak50,000
4222/09 00:57NAGA22murni besar5,000
4322/09 00:57AGENT88556lucky9910,000
4422/09 00:57HAER333murni besar50,000
4522/09 00:57CALUNG11murni kecil50,000
4622/09 00:56CHA1303murni besar50,000
4722/09 00:56AILYN12lucky9950,000
4822/09 00:56WARDHANA99murni besar25,000
4922/09 00:56SURANDILbalak100,000
5022/09 00:55BERDARAmurni besar25,000

Ceme Multi Jackpot System

Jackpot dilihat dari gabungan kartu pemain dengan kartu bandar. Bandar harus membeli jackpot sebanyak jumlah player yang sedang duduk. Sebagai contoh bila terdapat 3 pemain duduk bermain, dan bandar memutuskan untuk membeli jackpot Rp 1.000, maka pada periode tersebut bandar akan membeli jackpot sebanyak 3xRp1.000 = Rp3.000.

Jackpot bukanlah suatu keharusan untuk dibeli, namun kami memberikan suatu fitur tambahan untuk member tercinta dari www.bapapoker.com.

Terdapat tiga pilihan harga jackpot yang bisa anda beli yaitu :100,500 dan 1000 rupiah.

Hadiah dari Multi jackpot system www.bapapoker.com

  1. Murni Kecil x 50 harga jackpot yang anda beli.
      (contoh:anda membeli 1000 maka:1000 X 50 = 50.000)
  2. Murni Besar x 50 harga jackpot yang anda beli
      (contoh:anda membeli 1000 maka:1000 X 50 = 50.000)
  3. BALAK x 200 harga jackpot yang anda beli
      (contoh:anda membeli 1000 maka:1000 X 200 = 200.000)
  4. ENAM DEWA x 6666 harga jackpot yang anda beli
      (contoh:anda membeli 1000 maka:1000 X 6666 = 6.666.000)

Demikian adalah penjelasan dari Multi Jackpot www.bapapoker.com terima kasih dan selamat bermain salam hoki dari kami

Ceme Jackpot Winner

TOP ENAM DEWA
No.TanggalNamaPriceWin
122/09 01:12MRET27murni enam3,333,000
222/09 00:58MARZO11murni enam6,666,000
322/09 00:58FENGLIE12murni enam666,600
422/09 00:49TINIQU9murni enam6,666,000
522/09 00:41KINGQ9murni enam6,666,000
TOP BALAK
No.TanggalNamaPriceWin
122/09 01:12BJO19balak100,000
222/09 01:11ASLIENbalak20,000
322/09 01:10DENGGEL99balak200,000
422/09 01:10EMENG666balak200,000
522/09 01:10EDWARD64balak20,000
LATEST JACKPOT
No.TanggalNamaPriceWin
122/09 01:13UGIX1988murni besar50,000
222/09 01:13NSKPIANmurni besar25,000
322/09 01:13UGIX1988murni besar50,000
422/09 01:13B84BUANA13652murni besar25,000
522/09 01:13AGOESS179murni kecil50,000
622/09 01:13DWBTERRY69murni besar25,000
722/09 01:12SNI42019murni kecil5,000
822/09 01:12SELAMET24murni besar50,000
922/09 01:12MUNJANAHmurni kecil25,000
1022/09 01:12BJO19balak100,000
1122/09 01:12DIAURASYGmurni kecil25,000
1222/09 01:12ZANLE87murni besar5,000
1322/09 01:12JAROOT28murni besar25,000
1422/09 01:12MRET27murni enam3,333,000
1522/09 01:12DUDUNG9595murni besar50,000
1622/09 01:12MARBUN95murni besar5,000
1722/09 01:12BUT0N99murni kecil50,000
1822/09 01:12C5D85756murni kecil5,000
1922/09 01:12DEWAWD99murni besar50,000
2022/09 01:12ALBYRAYA17murni besar50,000
2122/09 01:12GOBOK0027murni kecil25,000
2222/09 01:12BESAR20murni besar25,000
2322/09 01:11NOBLESSEmurni kecil50,000
2422/09 01:11GADISKU11murni kecil50,000
2522/09 01:11PRO2330murni kecil50,000
2622/09 01:11LUTFH1murni kecil50,000
2722/09 01:11DION042murni besar50,000
2822/09 01:11ASLIENbalak20,000
2922/09 01:11METALLOVEmurni kecil50,000
3022/09 01:11MRTIYANmurni kecil25,000
3122/09 01:11DAKKENOmurni besar50,000
3222/09 01:11DAKKENOmurni besar50,000
3322/09 01:11KOD0K11murni besar25,000
3422/09 01:11HANTAM23murni kecil50,000
3522/09 01:11MOHSEHmurni kecil5,000
3622/09 01:11EDI99099_murni kecil50,000
3722/09 01:11J_KALAmurni kecil50,000
3822/09 01:11SANGGADITYmurni besar50,000
3922/09 01:10ARSAPATI19murni kecil25,000
4022/09 01:10DENGGEL99balak200,000
4122/09 01:10TEGUH140murni kecil25,000
4222/09 01:10AHOK9999murni kecil50,000
4322/09 01:10EMENG666balak200,000
4422/09 01:10PANTAR84murni besar50,000
4522/09 01:10TEUKU7murni besar25,000
4622/09 01:10PANTAR84murni besar50,000
4722/09 01:10BANGRAHMADmurni besar50,000
4822/09 01:10APUNKSmurni kecil5,000
4922/09 01:10DANIGI1010murni kecil5,000
5022/09 01:10KIMBHBAmurni kecil50,000